[[{"header":{"parameterUnit":"m.s-1","parameterCategory":1,"la1":30.2991,"la2":30.254,"lo1":-89.0895,"lo2":-89.0444,"dy":0.0017,"dx":0.0017,"nx":28,"ny":28,"refTime":"2025-07-16T21:00:00:Z","depth":0,"parameterNumber":2,"parameterNumberName":"U-component_of_WINDS"},"data":[0,0,0,0,0,0,0,0,0,0,0,0,0,0,0,0,0,0,0,0,0,0,0,0,0,0,0,0,0,0,0,0,0,0,0,0,0,0,0,0,0,0,0,0,0,0,0,0,0,0,0,0,0,0,0,0,0,0,2.2541,2.2546,0,2.2971,2.2976,2.2981,2.3006,2.3001,2.2996,2.2992,2.3479,2.3496,2.3514,0,0,0,0,0,0,0,0,0,0,0,0,0,2.1785,2.1798,2.2541,2.2546,2.2551,2.297,2.2976,2.2982,2.3007,2.3001,2.2995,2.2989,2.3473,2.3494,2.3516,0,0,0,0,0,0,0,0,0,0,0,0,0,2.2155,2.1803,2.254,2.2613,2.2624,2.2969,2.2976,2.2984,2.3009,2.3001,2.2993,2.2986,2.3466,2.3492,2.3518,2.3834,0,0,2.3599,2.3611,0,0,0,0,0,0,0,0,2.2134,2.2183,2.2597,2.2609,2.2621,2.2926,2.2888,2.327,2.301,2.2864,2.2991,2.2983,2.3305,2.3344,2.3443,2.3856,2.3877,2.3602,2.3618,2.3629,2.3637,0,0,0,0,0,0,0,2.2108,2.2165,2.2712,2.2603,2.2618,2.2639,2.2683,2.2961,2.3124,2.2876,2.2879,2.2927,2.331,2.3417,2.3454,2.3884,2.3601,2.3625,2.3641,2.3651,2.4581,2.459,0,0,0,0,0,0,2.2062,2.2143,2.2699,2.2725,2.2352,2.2658,2.2708,2.2837,2.312,2.3155,2.2933,2.2926,2.3375,2.3423,2.3472,2.3862,2.3629,2.3654,2.3669,2.4573,2.4583,2.4593,0,0,0,0,0,0,2.2045,2.2111,2.2681,2.2435,2.2508,2.2679,2.2824,2.2849,2.2956,2.3162,2.3196,2.3009,2.3371,2.3434,2.374,2.3879,2.3666,2.369,2.4562,2.4576,2.4588,2.4642,0,0,0,0,0,0,2.2024,2.2105,2.2217,2.2436,2.2521,2.2931,2.2832,2.2863,2.2996,2.2992,2.3243,2.3278,2.337,2.37,2.3767,2.3912,2.3711,2.4551,2.4568,2.4584,2.4629,2.4656,2.4678,0,0,0,0,0,2.1996,2.2226,2.2223,2.229,2.2662,2.2938,2.2989,2.3077,2.3006,2.3128,2.3259,2.327,2.3849,2.3732,2.3807,2.3962,2.4543,2.4563,2.4583,2.4618,2.4651,2.4678,0,0,0,0,0,0,2.2039,2.2257,2.2256,2.2559,2.2727,2.2942,2.3098,2.3108,2.3314,2.3304,2.3418,2.3475,2.3779,2.39,2.3764,2.4282,2.4191,2.4226,2.4192,2.4225,2.4249,2.4219,2.3733,0,0,0,0,0,2.2078,2.2269,2.2456,2.2708,2.2789,2.2927,2.3052,2.3102,2.3289,2.3366,2.3521,2.3714,2.3939,2.4088,2.4307,2.4643,2.4704,2.4787,2.4811,2.483,2.4864,2.5055,2.5096,2.4658,2.4657,2.4657,0,0,2.2175,2.2316,2.2434,2.2719,2.2856,2.3064,2.299,2.3215,2.3375,2.3406,2.3701,2.382,2.4044,2.4365,2.4516,2.4477,2.4996,2.4855,2.4869,2.4893,2.5079,2.5121,2.5158,2.4671,2.4669,2.4667,0,0,2.2453,2.2574,2.2797,2.293,2.3131,2.3219,2.3272,2.3482,2.3558,2.3851,2.3878,2.4077,2.4462,2.462,2.4752,2.5078,2.51,2.5148,2.5282,2.5466,2.5501,2.5532,2.5656,2.5698,2.5178,2.5178,2.5178,0,2.2551,2.285,2.2915,2.3135,2.3264,2.328,2.3514,2.3646,2.3916,2.4011,2.3957,2.4437,2.459,2.495,2.5028,2.5131,2.5206,2.5126,2.5487,2.552,2.5551,2.567,2.5716,2.5183,2.5183,2.5182,2.5182,0,2.2963,2.3171,2.3328,2.3567,2.3713,2.3941,2.4051,2.4194,2.4229,2.4327,2.463,2.4809,2.5065,2.5152,2.5198,2.5521,2.549,2.546,2.5374,2.5596,2.5711,2.5757,2.519,2.5189,2.5187,2.5186,0,0,2.3296,2.3553,2.3612,2.372,2.3937,2.4108,2.4337,2.4569,2.4693,2.4876,2.5081,2.54,2.537,2.5519,2.5581,2.5741,2.5996,2.5694,2.5701,2.575,2.6372,2.6398,2.6449,2.6004,2.6013,2.602,2.6355,0,2.3604,2.3994,2.4056,2.4407,2.4605,2.4618,2.482,2.4983,2.5078,2.5271,2.5383,2.5609,2.555,2.564,2.5797,2.593,2.6124,2.5906,2.6211,2.6221,2.6162,2.6508,2.654,2.6847,2.64,2.6407,2.6413,0,2.402,2.4193,2.4558,2.4743,2.4829,2.5007,2.5224,2.5402,2.559,2.5649,2.5807,2.5847,2.61,2.5989,2.6345,2.6195,2.6322,2.6406,2.642,2.6462,2.6337,2.6569,2.6947,2.6996,2.6483,2.6477,2.6472,0,2.4233,2.456,2.482,2.4911,2.5133,2.5258,2.536,2.5536,2.5671,2.5865,2.5956,2.6182,2.631,2.649,2.6595,2.6503,2.6945,2.6843,2.7013,2.7011,2.7116,2.711,2.7529,2.7181,2.718,2.7179,2.7178,0,2.4578,2.4804,2.4917,2.5079,2.5334,2.5404,2.566,2.5762,2.5917,2.6109,2.6138,2.6321,2.6441,2.6645,2.673,2.7015,2.7072,2.7136,2.7159,2.7139,2.7132,2.7233,2.7219,2.7192,2.7189,2.7187,2.7184,0,2.4867,2.4949,2.5234,2.5412,2.5463,2.5644,2.5805,2.597,2.6056,2.6299,2.6361,2.6508,2.6748,2.6864,2.7169,2.7225,2.755,2.7554,2.7482,2.7493,2.7659,2.7645,2.8167,2.8242,2.7834,2.7838,2.7841,0,2.5086,2.5256,2.5446,2.5566,2.5665,2.5862,2.5994,2.607,2.621,2.643,2.6571,2.6806,2.7,2.7385,2.7529,2.7762,2.7778,2.7944,2.7816,2.779,2.7792,2.7783,2.7805,2.7972,2.7976,2.7979,2.7982,0,2.547,2.5498,2.5678,2.5871,2.6022,2.6183,2.6343,2.6445,2.6548,2.6706,2.694,2.7088,2.7387,2.7627,2.7866,2.7988,2.8009,2.8017,2.8071,2.806,2.8013,2.8048,2.7555,2.801,2.8007,2.8005,2.8003,2.8002,2.5738,2.5889,2.6042,2.6242,2.6364,2.651,2.667,2.677,2.6962,2.72,2.7236,2.7489,2.7674,2.7994,2.8121,2.8329,2.8295,2.837,2.8392,2.8412,2.8423,2.7967,2.8373,2.8373,2.8372,2.8372,2.8371,0,2.613,2.6224,2.6405,2.6616,2.6775,2.6753,2.6927,2.7068,2.7283,2.7443,2.7626,2.7899,2.8128,2.8282,2.8518,2.8655,2.8671,2.8716,2.8713,2.8742,2.8438,2.8371,2.8699,2.8699,2.8699,2.8699,2.8699,2.8699,2.6353,2.6608,2.6653,2.6972,2.7071,2.7303,2.7405,2.7543,2.767,2.7966,2.8149,2.8239,2.8402,2.8647,2.886,2.8901,2.8992,2.9038,2.9081,2.8797,2.8763,2.8731,2.8669,2.9055,2.9055,2.9369,2.9372,2.9374]},{"header":{"parameterUnit":"m.s-1","parameterCategory":1,"la1":30.2991,"la2":30.254,"lo1":-89.0895,"lo2":-89.0444,"dy":0.0017,"dx":0.0017,"nx":28,"ny":28,"refTime":"2025-07-16T21:00:00:Z","depth":0,"parameterNumber":3,"parameterNumberName":"V-component_of_WINDS"},"data":[0,0,0,0,0,0,0,0,0,0,0,0,0,0,0,0,0,0,0,0,0,0,0,0,0,0,0,0,0,0,0,0,0,0,0,0,0,0,0,0,0,0,0,0,0,0,0,0,0,0,0,0,0,0,0,0,0,0,0.3906,0.3915,0,0.4775,0.4785,0.4795,0.5102,0.5099,0.5096,0.5093,0.5988,0.6014,0.604,0,0,0,0,0,0,0,0,0,0,0,0,0,0.2518,0.2541,0.3905,0.3916,0.3927,0.4773,0.4785,0.4797,0.5103,0.5099,0.5095,0.5092,0.5979,0.601,0.6043,0,0,0,0,0,0,0,0,0,0,0,0,0,0.3227,0.2549,0.3903,0.4181,0.4215,0.4771,0.4786,0.48,0.5104,0.5099,0.5094,0.509,0.5968,0.6007,0.6047,0.6392,0,0,0.617,0.6187,0,0,0,0,0,0,0,0,0.3186,0.3277,0.413,0.4163,0.4202,0.4825,0.4625,0.5334,0.5105,0.4767,0.5093,0.5087,0.5605,0.5675,0.5849,0.6433,0.6472,0.6173,0.6198,0.6215,0.6227,0,0,0,0,0,0,0,0.3137,0.3242,0.425,0.4142,0.4186,0.4265,0.4361,0.476,0.5202,0.4796,0.482,0.4918,0.5624,0.5809,0.5872,0.6485,0.6172,0.6208,0.6233,0.6249,0.7401,0.7408,0,0,0,0,0,0,0.304,0.3199,0.4222,0.4276,0.3671,0.4294,0.4401,0.463,0.5199,0.5281,0.4922,0.4929,0.5743,0.5825,0.5904,0.6353,0.6215,0.6253,0.6276,0.7395,0.7403,0.741,0,0,0,0,0,0,0.3009,0.3128,0.4187,0.3745,0.3885,0.4323,0.4578,0.465,0.4836,0.5294,0.5375,0.503,0.5742,0.5848,0.627,0.6387,0.6271,0.6307,0.7387,0.7397,0.7406,0.7245,0,0,0,0,0,0,0.2968,0.3115,0.3249,0.3745,0.3907,0.4536,0.4585,0.467,0.4904,0.4922,0.5417,0.5494,0.5747,0.6208,0.6309,0.6441,0.6339,0.7379,0.7392,0.7403,0.7242,0.7248,0.7253,0,0,0,0,0,0.2917,0.3169,0.3254,0.3376,0.4084,0.4542,0.4635,0.492,0.4911,0.5053,0.5347,0.5478,0.6354,0.6248,0.6365,0.651,0.7373,0.7388,0.7402,0.7239,0.7246,0.7252,0,0,0,0,0,0,0.2679,0.3239,0.334,0.3759,0.41,0.4592,0.4779,0.4917,0.5269,0.5272,0.561,0.5719,0.6116,0.6354,0.6225,0.6876,0.6872,0.6911,0.6708,0.6719,0.6724,0.6663,0.6372,0,0,0,0,0,0.2673,0.2996,0.3469,0.3793,0.3959,0.4337,0.4548,0.4737,0.5105,0.5251,0.5577,0.593,0.6286,0.6514,0.6866,0.7273,0.7389,0.7431,0.7435,0.7438,0.7471,0.771,0.7736,0.7458,0.7458,0.7458,0,0,0.267,0.3015,0.3199,0.3754,0.4041,0.4372,0.4458,0.4802,0.5053,0.5305,0.5726,0.5974,0.639,0.6807,0.7008,0.7019,0.7571,0.7457,0.7455,0.7488,0.7728,0.7753,0.7777,0.7468,0.7466,0.7465,0,0,0.2833,0.3122,0.3429,0.3713,0.4145,0.4396,0.4467,0.494,0.5116,0.5541,0.5739,0.6039,0.6643,0.6934,0.716,0.743,0.7567,0.7534,0.7568,0.7796,0.7819,0.784,0.7944,0.7976,0.7563,0.7563,0.7562,0,0.2775,0.3279,0.3569,0.3906,0.4147,0.4385,0.4701,0.4962,0.5487,0.5649,0.5652,0.6418,0.6714,0.7206,0.7271,0.7443,0.7541,0.7485,0.7791,0.7816,0.784,0.7943,0.798,0.7557,0.7557,0.7558,0.7558,0,0.319,0.3535,0.373,0.4231,0.4493,0.4815,0.5158,0.5388,0.5551,0.5801,0.6233,0.6596,0.7028,0.7156,0.732,0.7673,0.7667,0.7724,0.773,0.7855,0.7959,0.8,0.7548,0.755,0.7552,0.7553,0,0,0.3237,0.389,0.3958,0.4191,0.4683,0.4958,0.529,0.5713,0.5907,0.6257,0.6551,0.7054,0.7113,0.7369,0.7566,0.7765,0.7964,0.7802,0.7817,0.7827,0.8382,0.8342,0.8383,0.8052,0.8061,0.8068,0.835,0,0.3472,0.408,0.435,0.4838,0.5165,0.5394,0.5686,0.602,0.6261,0.6574,0.684,0.7195,0.724,0.7398,0.7604,0.7896,0.8082,0.7878,0.8334,0.8347,0.8234,0.8436,0.8396,0.8646,0.8391,0.8398,0.8403,0,0.3831,0.4184,0.4703,0.5159,0.5306,0.5563,0.5974,0.6268,0.6652,0.6813,0.7097,0.7285,0.7647,0.7617,0.8123,0.7978,0.8178,0.8349,0.8366,0.8429,0.839,0.8513,0.8732,0.8772,0.8468,0.8463,0.8458,0,0.3825,0.4428,0.4819,0.5009,0.5548,0.5724,0.5957,0.6336,0.6573,0.6929,0.7087,0.7479,0.7696,0.7996,0.8285,0.8236,0.8765,0.8758,0.8914,0.8907,0.9025,0.9016,0.9288,0.9135,0.9134,0.9133,0.9133,0,0.4067,0.4378,0.4824,0.5066,0.5422,0.5727,0.6072,0.6321,0.6656,0.6952,0.7169,0.7442,0.7803,0.8121,0.8348,0.8736,0.8829,0.8973,0.9032,0.8961,0.8943,0.9105,0.9099,0.9144,0.9141,0.9139,0.9138,0,0.4125,0.4435,0.4878,0.535,0.5476,0.5718,0.6125,0.6369,0.6616,0.6988,0.7092,0.7483,0.7869,0.8184,0.8688,0.8841,0.9249,0.931,0.9121,0.9154,0.9295,0.9281,0.969,0.9762,0.9548,0.9549,0.955,0,0.4265,0.451,0.5008,0.5221,0.5451,0.5791,0.6034,0.6342,0.6586,0.704,0.723,0.7631,0.7971,0.8576,0.8906,0.9293,0.9372,0.9488,0.9433,0.9354,0.9386,0.9372,0.9401,0.9497,0.9498,0.9498,0.9499,0,0.4483,0.4624,0.4965,0.536,0.5643,0.5969,0.63,0.6462,0.6831,0.7094,0.7492,0.7753,0.8268,0.8666,0.9088,0.9329,0.9478,0.9511,0.957,0.9506,0.9389,0.9463,0.9146,0.9504,0.9503,0.9503,0.9503,0.9503,0.4596,0.4827,0.5213,0.5586,0.5866,0.6171,0.6425,0.6703,0.704,0.7485,0.7644,0.8053,0.8431,0.9012,0.9254,0.9579,0.9595,0.9676,0.97,0.9718,0.9713,0.9326,0.9655,0.9655,0.9656,0.9656,0.9656,0,0.4835,0.5094,0.5432,0.5889,0.6183,0.6291,0.6663,0.6902,0.726,0.7598,0.7926,0.8384,0.8769,0.9125,0.9528,0.972,0.9798,0.9816,0.9811,0.9865,0.9672,0.9586,0.9746,0.9746,0.9746,0.9746,0.9746,0.9746,0.4995,0.5393,0.5578,0.6118,0.6376,0.6779,0.6982,0.7265,0.7537,0.8038,0.836,0.8588,0.8936,0.9365,0.9723,0.9818,0.9961,0.9962,1.0075,0.9891,0.9878,0.9866,0.9788,0.9988,0.9988,1.0244,1.0247,1.0248]}]]